CDT,Max TemperatureF,Mean TemperatureF,Min TemperatureF,Max Dew PointF,MeanDew PointF,Min DewpointF,Max Humidity, Mean Humidity, Min Humidity, Max Sea Level PressureIn, Mean Sea Level PressureIn, Min Sea Level PressureIn, Max VisibilityMiles, Mean VisibilityMiles, Min VisibilityMiles, Max Wind SpeedMPH, Mean Wind SpeedMPH, Max Gust SpeedMPH,PrecipitationIn, CloudCover, Events, WindDirDegrees
2013-6-1,59,55,51,57,51,45,94,85,72,30.04,29.78,29.58,10,9,2,21,11,31,0.07,8,Rain,310
2013-6-2,66,58,50,50,43,37,87,61,35,30.12,30.06,30.00,10,10,7,14,7,18,0.00,4,,350
2013-6-3,73,60,48,48,44,39,87,55,29,30.03,29.94,29.82,10,10,10,23,7,31,0.03,0,,160
2013-6-4,64,62,59,59,55,48,94,77,59,30.02,29.95,29.89,10,9,0,17,7,24,0.07,6,Fog-Rain,124
2013-6-5,60,56,53,57,51,46,100,80,59,30.05,30.03,30.01,10,8,0,14,4,18,0.00,4,Fog,323
2013-6-6,66,60,53,52,49,46,82,63,52,30.04,30.00,29.99,10,10,10,13,7,16,0.00,6,,15
2013-6-7,71,58,44,50,46,43,100,63,35,30.05,29.98,29.88,10,9,3,8,1,,0.00,1,,119
2013-6-8,62,58,55,57,52,46,94,80,63,29.88,29.78,29.64,10,9,3,20,10,30,1.00,6,Rain,141
2013-6-9,66,62,57,59,57,55,100,86,73,29.85,29.69,29.60,10,7,2,20,12,28,0.25,8,Rain,299
2013-6-10,75,66,57,63,58,55,100,79,53,29.90,29.85,29.81,10,7,1,10,6,,0.00,5,,129
2013-6-11,87,76,66,68,64,59,83,60,40,29.84,29.78,29.74,10,10,10,18,9,26,0.00,0,,126
2013-6-12,78,69,60,70,62,52,94,75,56,30.04,29.83,29.62,10,10,5,20,10,30,0.26,4,Rain,14
2013-6-13,78,66,55,57,50,45,88,57,30,30.12,30.07,29.99,10,10,2,7,4,,0.00,0,,36
2013-6-14,78,71,64,66,60,54,83,66,54,30.05,29.89,29.77,10,10,7,26,9,36,0.22,2,Rain,158
2013-6-15,80,71,62,66,62,59,94,76,54,29.99,29.90,29.85,10,10,3,30,5,50,0.26,2,Rain,46
2013-6-16,82,70,59,63,55,39,100,63,23,30.01,29.98,29.92,10,8,0,9,1,,0.00,0,Fog,293
2013-6-17,84,70,57,57,52,46,94,54,28,30.03,30.00,29.95,10,10,10,16,3,22,0.00,0,,328
2013-6-18,84,72,59,57,52,46,94,52,27,30.06,30.02,29.97,10,10,10,9,3,17,0.00,1,,38
2013-6-19,87,74,62,63,57,54,77,53,37,30.02,29.95,29.88,10,10,10,17,8,26,0.00,1,,167
2013-6-20,89,79,69,70,65,63,78,61,43,29.93,29.87,29.80,10,10,10,25,13,32,0.00,2,,167
2013-6-21,93,85,77,72,68,63,78,61,38,29.87,29.81,29.76,10,10,7,22,12,32,0.00,1,,170
2013-6-22,82,73,64,68,63,57,94,73,57,30.00,29.86,29.71,10,10,5,37,10,48,0.28,3,Rain,79
2013-6-23,82,73,64,66,62,61,94,70,48,29.92,29.83,29.69,10,10,7,25,10,37,0.09,1,Rain,247
2013-6-24,80,73,66,68,65,61,94,76,54,29.92,29.82,29.75,10,9,4,20,4,29,0.06,4,Rain,152
2013-6-25,87,78,69,72,65,59,88,66,45,29.78,29.72,29.67,10,10,7,17,5,24,0.00,1,Rain,161
2013-6-26,89,79,69,72,63,54,94,63,29,29.88,29.79,29.68,10,8,2,20,5,26,0.00,0,,325
2013-6-27,87,76,66,66,61,52,88,63,29,30.00,29.94,29.88,10,10,10,16,4,22,0.03,1,Rain,301
2013-6-28,84,74,64,63,54,45,77,49,25,29.99,29.94,29.90,10,10,10,26,10,36,0.00,1,,331
2013-6-29,78,70,62,57,53,46,77,55,32,29.99,29.92,29.89,10,10,10,24,10,34,0.00,2,,355
2013-6-30,77,66,55,54,48,39,88,56,29,30.15,30.09,29.99,10,10,10,10,3,18,0.00,0,,39